Volver al catálogo

INTELSAT 508

ActivoComunicacionesGEO
NORAD 14786·PAYLOAD· XX

Lanzado Mar 5, 1984 desde Guiana Space Centre

Loading…

TLE

ActualizadoSource: Space-Track

Época: Sep 14, 2026, 03:15 UTC

1 14786U 84023A   26257.13545701 -.00000122  00000-0  00000-0 0  9997
2 14786  13.5481 337.2101 0019097 268.1839  95.9639  0.97292419 46835

Sigue INTELSAT 508 en tiempo real con AllMySat

Download on the App Store